Temperature
31 33 33 33 33 33 33 32 32 31 31 30 30 30 29 29 28 27 26 25 24 23 22 22 21 20 20 19 19 19 18 18 18 18 18 18 17 17 17 17 16 16 16 16
30 32 33 33 33 33 33 33 32 32 31 32 31 30 29 28 27 27 26 25 24 23 22 21 21 20 19 19 19 18 18 18 18 17 17 17 17 17 17 17 16 16 16 16
29 31 31 31 32 33 33 33 33 31 31 31 30 29 28 27 27 26 25 24 24 23 22 21 20 20 19 19 19 18 18 17 17 17 17 17 17 17 17 16 16 16 16 16
29 29 28 31 34 34 33 33 33 32 31 31 29 28 27 26 26 25 24 24 23 22 21 21 20 19 19 19 18 18 18 17 17 17 17 17 16 16 16 16 16 16 15 15
28 28 29 31 32 33 32 31 32 32 31 30 28 27 26 25 25 24 23 23 22 22 21 20 20 19 19 18 18 18 17 17 17 17 17 16 16 16 16 15 15 15 15 15
28 27 28 30 32 33 32 30 31 30 30 29 28 27 25 24 23 23 22 22 22 21 21 20 19 19 18 18 17 17 17 17 17 16 16 16 16 16 15 15 15 14 14 14
27 27 28 30 31 32 29 28 29 29 28 28 27 25 24 23 22 22 21 21 21 20 20 19 19 18 18 18 17 17 17 16 16 16 16 16 15 15 15 15 15 14 14 14
27 27 27 30 30 29 27 28 28 27 26 25 24 23 22 22 21 21 20 20 20 19 19 19 18 18 18 17 17 17 16 16 16 16 16 15 15 15 15 15 14 14 14 13
27 27 26 27 27 27 27 26 26 26 25 24 23 22 22 21 20 20 20 19 19 18 18 18 17 17 17 17 16 16 16 16 16 16 15 15 15 15 15 14 14 14 13 13
26 26 26 26 26 26 26 25 25 24 24 23 22 21 21 20 20 19 19 18 18 18 17 17 17 16 16 16 16 16 16 16 16 15 15 15 15 14 14 14 14 13 13 13
25 25 25 25 25 25 24 24 24 23 23 22 22 21 20 19 19 18 18 18 17 17 17 16 16 16 16 16 16 15 15 15 15 15 15 14 14 14 14 13 13 13 13 13
24 23 24 23 24 24 23 23 23 22 22 21 21 20 19 19 18 18 17 17 17 16 16 16 16 15 15 15 15 15 15 15 15 14 14 14 14 13 13 13 13 13 13 13
23 23 23 22 22 22 22 22 21 21 21 20 19 19 19 18 18 17 17 16 16 16 16 15 15 15 15 14 14 14 14 14 14 14 14 13 13 13 13 13 13 12 12 12
22 22 22 21 21 21 21 20 20 20 19 19 18 18 18 17 17 16 16 16 16 15 15 15 15 14 14 14 14 14 14 14 14 13 13 13 13 13 12 12 12 12 12 11
21 21 21 20 20 20 20 19 19 19 18 18 18 17 17 16 16 15 15 15 15 15 15 14 14 14 14 14 14 14 13 13 13 13 13 12 12 12 12 12 12 11 11 11
20 20 20 19 19 19 19 19 18 18 18 17 17 16 16 16 15 15 15 15 14 14 14 14 14 14 13 13 13 13 13 13 13 13 13 12 12 12 12 12 11 11 11 11
19 19 19 19 19 19 19 18 18 17 17 16 16 15 15 15 15 14 14 14 14 14 13 13 13 13 13 13 13 13 13 13 13 13 12 12 12 12 12 11 11 11 10 10
19 18 18 18 18 18 18 18 17 17 16 16 15 15 15 14 14 14 13 13 13 13 13 13 13 13 12 12 12 12 12 12 12 12 12 12 12 12 11 11 11 11 10 10
18 18 18 18 18 17 17 16 16 16 15 15 15 14 14 13 13 13 13 13 12 12 12 12 12 12 12 12 12 12 12 12 12 12 12 12 11 11 11 11 11 10 10 10
17 17 17 17 17 16 16 16 15 15 14 14 14 13 13 13 13 13 12 12 12 12 12 12 12 11 11 12 12 12 12 12 12 12 12 11 11 11 11 11 10 10 10 10
16 16 16 16 16 15 15 15 14 14 14 13 13 13 12 12 12 12 12 12 12 12 11 11 11 11 11 11 12 12 12 12 12 11 11 11 11 11 11 10 10 10 10 10
16 15 15 15 15 15 14 14 14 13 13 13 12 12 12 12 12 12 12 11 11 11 11 11 11 11 11 11 11 11 11 11 11 11 11 11 11 10 10 10 10 10 9 9
14 14 14 14 14 14 13 13 13 13 12 12 12 12 12 12 11 11 11 11 11 11 11 11 11 11 11 11 11 11 11 11 11 11 11 10 10 10 10 10 10 9 9 9
13 13 13 13 13 13 13 13 12 12 12 12 12 11 11 11 11 11 11 11 11 11 10 10 10 11 11 11 11 11 11 11 10 10 10 10 10 10 10 9 9 9 9 8
13 13 13 13 13 13 12 12 12 12 12 12 12 11 11 11 11 11 11 11 10 10 10 10 10 10 10 10 10 10 10 10 10 10 10 10 10 9 9 9 9 8 8 8
12 12 12 12 12 12 12 12 12 12 12 12 11 11 11 11 11 11 11 10 10 10 10 10 10 10 10 10 10 10 10 10 10 10 10 10 9 9 9 9 8 8 8 8
12 12 12 12 12 12 12 12 12 12 12 12 11 11 11 11 11 10 10 10 10 10 10 10 10 10 10 10 10 10 10 10 9 9 9 9 9 9 8 8 8 8 7 7
Wind_Speed
17 15 13 14 16 16 14 12 9 5 7 9 9 9 9 10 9 9 8 8 7 7 7 5 5 5 4 4 4 4 4 4 3 3 2 2 2 2 1 1 1 2 2 2
17 18 16 14 15 15 14 12 11 7 3 7 9 10 10 9 8 8 7 7 7 7 7 6 5 5 5 4 4 4 3 3 3 3 2 2 2 2 2 2 2 2 2 3
15 17 17 16 13 14 13 12 9 7 4 9 9 9 9 8 7 7 6 6 5 6 7 6 5 5 4 4 4 4 3 3 3 2 2 2 2 2 2 2 2 2 2 3
13 13 17 13 11 11 12 10 7 5 5 8 10 11 8 6 7 7 6 5 5 5 6 6 6 5 4 4 4 3 3 2 2 2 2 2 2 2 2 2 2 2 2 2
12 14 14 11 10 10 9 7 6 6 6 9 11 11 8 6 7 7 6 5 5 5 6 6 5 5 5 5 4 3 2 2 2 1 1 2 2 2 2 2 2 2 3 3
11 13 14 11 10 8 7 8 6 6 7 7 9 5 6 8 9 8 7 5 5 6 7 6 5 5 5 4 4 3 2 1 1 2 1 1 1 1 2 2 2 3 3 3
15 14 9 6 8 8 8 5 7 7 7 7 6 6 10 11 10 8 8 7 6 6 6 6 6 5 5 4 3 2 2 2 2 2 2 1 1 1 2 2 2 2 3 3
14 15 8 3 5 4 4 6 8 9 10 12 14 13 12 11 9 9 8 8 8 7 7 6 5 5 5 4 3 3 2 2 3 2 1 1 2 1 2 3 3 2 3 2
6 5 3 5 5 7 9 10 9 10 12 13 14 12 12 10 9 8 8 8 7 7 7 6 5 5 5 4 3 3 3 3 2 2 2 2 2 1 1 2 2 2 2 2
2 3 4 6 7 8 10 10 10 11 11 12 13 12 11 9 8 8 8 7 7 7 6 6 5 5 5 4 3 3 2 2 2 2 2 3 2 1 1 1 0 1 1 1
2 5 5 6 7 8 9 11 12 11 11 11 12 11 10 8 7 7 6 6 6 6 6 6 5 5 4 3 3 2 2 1 2 2 3 3 3 4 3 3 2 0 0 1
4 4 4 6 6 9 9 10 11 11 11 11 10 10 9 8 7 6 5 5 5 5 5 5 4 4 4 3 2 2 1 1 1 1 2 3 3 4 9 7 8 8 7 4
4 6 7 7 8 10 10 10 10 11 11 10 10 9 8 7 6 6 5 5 5 5 4 4 4 4 3 3 2 1 1 0 0 1 1 1 2 2 2 4 7 9 8 7
6 7 8 8 9 10 10 10 10 11 10 10 9 8 8 7 6 6 5 4 4 4 4 4 4 4 3 2 2 1 0 0 0 1 1 1 1 1 2 2 3 2 4 5
5 7 9 9 9 11 10 9 9 10 10 9 8 8 7 6 5 4 4 4 4 3 4 3 3 3 2 2 1 1 1 1 1 1 1 1 1 1 2 2 3 4 3 3
4 7 10 9 8 9 10 9 8 8 8 8 7 7 6 6 5 4 3 3 3 3 3 3 2 2 2 1 1 0 0 0 1 1 1 1 1 1 1 2 3 3 3 3
6 7 8 8 8 8 8 8 8 7 7 7 6 6 5 5 4 3 3 3 3 3 3 2 2 2 1 1 1 1 0 1 2 1 0 1 1 1 2 2 2 2 2 3
5 6 7 7 7 7 7 7 7 7 7 6 6 5 4 4 3 3 2 2 3 3 3 3 3 2 1 1 1 1 1 1 1 1 1 1 1 1 2 2 1 2 3 3
5 6 7 7 7 6 7 7 7 6 5 5 5 5 4 3 3 2 1 2 2 2 2 3 2 1 1 1 2 2 1 1 1 1 1 1 1 1 2 2 1 2 2 3
5 6 7 7 7 6 6 6 6 6 5 4 4 4 3 3 3 2 2 2 2 2 1 1 1 2 1 1 3 2 1 0 1 2 1 1 1 2 2 2 2 2 2 2
5 5 6 6 6 5 5 5 5 5 4 4 4 3 3 3 2 2 2 2 2 2 1 1 1 1 1 3 4 2 0 1 1 1 1 1 1 2 2 2 2 3 2 2
4 4 5 5 5 4 4 3 4 4 4 4 3 3 3 3 2 2 2 2 3 2 0 0 1 3 4 4 2 1 1 1 2 2 2 2 2 2 2 2 2 2 2 2
3 3 4 4 4 4 4 4 4 4 4 3 3 3 3 2 2 2 2 2 3 1 0 1 3 3 4 3 2 1 2 2 3 3 2 1 2 2 1 1 2 2 2 2
4 4 4 4 4 4 4 4 4 3 4 3 3 3 3 3 2 2 3 4 3 2 1 3 2 1 3 2 1 1 2 2 2 2 2 2 2 2 2 2 2 3 2 2
4 3 3 3 3 3 4 4 4 4 4 3 3 4 3 2 2 3 3 4 4 3 3 4 3 2 2 1 1 1 2 3 2 2 2 2 2 2 2 2 2 2 2 2
3 3 2 2 2 2 3 4 4 3 3 3 3 3 2 2 3 3 3 5 4 2 2 3 2 2 1 1 1 2 2 2 1 1 1 1 2 2 2 2 3 3 3 3
4 3 3 2 2 2 2 2 3 3 3 3 3 3 2 2 3 3 4 3 3 3 2 2 2 2 1 1 1 1 1 1 2 2 2 2 2 2 2 2 2 3 3 3
Wind_Direction
260 265 247 224 223 226 231 247 256 223 174 158 149 135 129 130 130 132 137 140 137 134 127 126 126 128 124 124 119 124 127 131 140 138 131 130 112 95 80 73 81 72 60 48
253 257 261 246 224 222 227 236 243 241 185 135 135 128 130 131 136 136 143 146 146 144 140 142 139 136 134 137 129 126 133 135 129 134 136 127 112 109 98 82 73 78 70 66
249 246 252 245 230 223 224 231 236 230 176 134 132 127 130 135 137 136 140 139 144 146 145 145 143 137 146 146 144 144 136 129 133 138 134 133 136 123 116 107 97 83 78 81
250 247 241 243 241 233 227 225 214 189 142 120 119 111 105 114 123 126 126 126 124 134 135 136 139 144 143 137 133 138 139 138 136 142 136 116 115 122 130 125 117 105 102 98
243 241 237 242 236 228 221 212 198 174 149 129 122 115 110 108 107 108 112 118 124 130 126 125 130 135 133 129 128 125 124 131 140 146 129 124 133 145 148 138 128 114 101 102
239 245 240 233 228 229 215 203 174 156 144 139 139 155 133 117 108 103 93 95 109 117 115 113 114 117 123 127 128 130 126 120 114 107 113 134 131 132 132 137 121 109 101 96
237 244 250 246 217 208 220 194 136 133 132 135 114 99 111 108 103 101 98 92 91 101 105 108 114 117 118 114 113 113 112 111 108 102 106 124 110 115 134 133 118 108 104 95
231 240 236 246 226 202 124 104 111 117 114 106 104 107 107 104 101 101 98 92 90 90 90 93 106 112 109 95 79 75 81 85 81 83 86 99 110 127 141 138 138 130 122 110
219 218 67 61 83 102 111 109 109 111 111 114 116 115 111 111 108 100 97 92 91 93 89 86 88 97 99 85 75 78 79 81 87 83 69 67 81 99 140 158 160 149 159 160
170 132 111 107 103 99 108 114 113 110 115 117 116 114 112 108 103 99 94 91 91 91 88 83 78 80 84 79 75 85 92 99 101 98 84 73 56 45 49 42 91 130 142 140
148 123 107 89 97 110 111 110 109 113 114 113 116 117 116 111 105 99 96 90 88 87 86 85 82 80 84 82 86 94 102 99 114 117 112 94 62 36 43 43 28 32 44 62
165 138 120 113 106 111 115 115 114 113 108 109 111 115 114 110 105 101 98 94 93 90 86 86 85 82 74 76 84 89 102 79 89 120 111 112 109 79 50 59 58 58 58 67
106 126 120 118 113 108 108 106 106 107 107 104 102 106 105 104 100 98 97 91 91 92 91 95 91 83 74 73 77 71 61 73 65 90 100 120 138 136 116 75 63 57 58 68
96 113 119 115 114 111 107 106 105 103 100 98 98 100 101 100 98 95 90 88 88 87 85 82 79 74 66 68 72 37 334 61 48 95 103 114 136 150 145 142 122 93 64 77
100 122 125 117 111 113 113 113 112 106 101 99 102 102 102 100 97 93 91 90 94 92 80 72 67 61 59 58 58 29 6 17 35 83 132 144 154 150 140 134 123 115 107 92
112 122 124 126 133 131 126 123 115 110 107 105 101 98 101 103 98 90 92 93 92 87 80 70 61 45 31 37 35 27 61 4 273 237 163 135 123 117 106 106 106 114 117 111
140 136 137 139 134 126 119 115 114 111 108 103 101 102 108 109 107 96 86 77 74 77 75 71 55 31 2 350 314 287 209 201 230 246 58 67 96 96 97 101 110 121 118 129
131 134 145 139 132 126 118 114 111 110 109 108 108 104 101 103 102 97 85 94 96 87 70 61 51 14 351 0 318 293 246 225 177 103 84 80 93 112 108 108 121 116 117 131
107 118 124 121 118 116 115 113 111 110 114 116 112 106 105 105 100 108 123 110 100 93 66 48 12 313 316 5 332 275 229 192 137 115 125 143 179 120 105 106 109 114 110 121
111 108 107 109 107 108 111 110 111 112 112 112 113 115 115 107 105 115 115 98 75 58 56 46 294 295 302 327 308 285 275 190 124 122 126 131 109 85 75 73 72 78 86 104
122 121 117 113 106 107 112 115 115 115 113 116 122 130 129 129 131 118 128 117 85 57 36 272 271 342 358 345 296 287 34 73 82 82 90 87 80 80 74 72 80 85 89 93
114 121 129 126 127 123 114 116 119 120 120 127 134 137 141 143 139 125 122 115 119 86 24 150 85 55 16 340 303 338 61 79 84 79 71 68 72 74 75 79 85 91 94 97
103 107 111 117 121 121 118 118 120 124 131 141 152 154 154 150 165 160 137 115 121 114 295 82 81 56 2 327 326 25 56 65 74 81 83 92 101 98 88 87 81 79 78 70
111 107 110 119 126 135 137 135 131 135 146 156 157 151 161 167 157 139 123 129 121 137 111 99 104 38 314 303 326 63 65 58 62 68 68 61 64 68 59 60 63 60 55 53
119 124 129 131 143 147 149 153 155 161 164 149 145 145 158 156 144 135 132 137 140 163 151 152 180 255 278 315 336 85 87 71 67 60 75 77 67 62 56 55 49 44 47 55
143 146 137 159 152 170 177 174 169 167 161 149 147 149 143 132 128 131 142 151 149 159 158 150 171 218 248 330 40 71 89 112 104 81 66 75 62 60 58 50 51 50 47 45
160 155 162 173 175 179 172 165 158 154 151 146 149 149 142 143 144 146 145 148 153 159 155 159 165 176 182 145 103 100 108 88 69 52 58 67 78 83 83 74 62 58 55 52
Height
1480 1474 1471 1476 1479 1479 1484 1487 1494 1495 1496 1495 1495 1498 1503 1507 1511 1515 1519 1523 1526 1528 1530 1532 1533 1535 1536 1537 1537 1537 1537 1538 1538 1538 1538 1538 1538 1538 1538 1538 1538 1538 1537 1537
1485 1476 1473 1474 1473 1476 1479 1481 1485 1488 1492 1489 1494 1499 1504 1508 1512 1515 1519 1522 1525 1528 1529 1531 1533 1534 1535 1536 1536 1536 1537 1537 1537 1537 1537 1537 1538 1538 1538 1537 1537 1537 1536 1536
1491 1480 1478 1484 1474 1474 1477 1477 1481 1490 1490 1489 1496 1500 1505 1509 1513 1516 1519 1522 1525 1526 1528 1530 1532 1533 1534 1535 1535 1536 1536 1536 1537 1537 1537 1537 1537 1536 1536 1536 1536 1536 1535 1535
1490 1489 1502 1480 1464 1466 1472 1475 1477 1482 1486 1491 1497 1503 1507 1510 1513 1517 1520 1522 1524 1526 1528 1529 1531 1532 1533 1534 1535 1535 1535 1536 1536 1536 1536 1536 1536 1535 1535 1535 1535 1535 1534 1534
1492 1494 1489 1475 1466 1467 1474 1479 1477 1481 1487 1492 1498 1503 1509 1512 1515 1518 1520 1522 1524 1526 1527 1528 1530 1531 1532 1533 1533 1534 1535 1535 1535 1535 1535 1535 1534 1534 1534 1534 1534 1534 1534 1533
1491 1497 1497 1480 1467 1467 1473 1485 1480 1483 1488 1493 1497 1504 1510 1513 1515 1518 1521 1522 1524 1525 1526 1527 1529 1530 1531 1532 1533 1533 1534 1534 1535 1535 1534 1534 1534 1533 1534 1534 1534 1533 1533 1533
1490 1492 1484 1469 1467 1470 1488 1489 1482 1485 1490 1494 1498 1505 1511 1513 1516 1519 1521 1523 1524 1525 1526 1527 1528 1530 1531 1532 1533 1533 1534 1534 1533 1533 1533 1533 1533 1533 1533 1533 1533 1532 1532 1532
1487 1492 1490 1472 1470 1475 1482 1482 1484 1489 1493 1497 1501 1506 1510 1514 1518 1520 1521 1523 1524 1525 1526 1527 1528 1529 1530 1531 1532 1533 1533 1533 1533 1533 1532 1532 1532 1532 1532 1532 1532 1532 1531 1531
1479 1484 1479 1476 1477 1480 1482 1486 1489 1492 1496 1500 1504 1509 1513 1516 1519 1521 1523 1524 1525 1526 1527 1528 1529 1529 1530 1531 1532 1532 1532 1532 1532 1532 1532 1531 1531 1530 1530 1530 1530 1530 1530 1530
1477 1479 1479 1480 1481 1484 1486 1489 1492 1495 1499 1502 1506 1511 1515 1518 1520 1522 1523 1524 1525 1526 1527 1528 1529 1529 1530 1530 1531 1531 1531 1531 1531 1531 1531 1530 1530 1530 1530 1529 1529 1529 1529 1529
1478 1481 1482 1483 1484 1487 1489 1492 1495 1499 1501 1504 1508 1512 1516 1519 1521 1522 1524 1525 1526 1527 1528 1528 1529 1529 1529 1530 1530 1530 1530 1530 1530 1530 1530 1530 1530 1529 1529 1528 1528 1528 1528 1528
1479 1482 1484 1488 1489 1490 1493 1496 1499 1502 1504 1508 1511 1514 1517 1520 1522 1523 1525 1526 1527 1527 1528 1528 1529 1529 1529 1529 1529 1529 1530 1530 1530 1530 1529 1529 1528 1528 1528 1528 1527 1527 1526 1526
1480 1482 1485 1488 1491 1493 1496 1499 1502 1504 1507 1510 1513 1515 1518 1520 1522 1524 1525 1526 1527 1527 1528 1528 1529 1529 1529 1529 1529 1529 1529 1529 1529 1529 1528 1528 1528 1527 1527 1527 1526 1526 1526 1525
1482 1484 1487 1490 1493 1496 1499 1502 1504 1507 1509 1512 1514 1517 1519 1521 1523 1524 1525 1526 1527 1527 1528 1528 1528 1528 1528 1528 1528 1528 1528 1528 1528 1528 1527 1527 1527 1527 1526 1526 1525 1525 1525 1524
1485 1487 1490 1492 1495 1499 1502 1505 1507 1509 1511 1514 1516 1519 1520 1522 1523 1525 1526 1526 1527 1527 1527 1528 1528 1527 1527 1527 1527 1527 1527 1527 1527 1527 1527 1527 1527 1526 1526 1526 1525 1525 1524 1524
1488 1489 1492 1495 1498 1501 1503 1506 1508 1511 1513 1515 1518 1520 1521 1523 1524 1525 1525 1526 1526 1526 1526 1527 1526 1526 1526 1526 1526 1526 1526 1526 1526 1527 1527 1526 1526 1526 1526 1525 1525 1524 1524 1524
1490 1492 1494 1497 1499 1502 1505 1508 1510 1512 1514 1516 1518 1520 1522 1523 1524 1524 1525 1525 1526 1526 1526 1526 1525 1525 1525 1525 1525 1526 1526 1526 1526 1526 1526 1526 1526 1526 1525 1525 1525 1524 1524 1524
1491 1493 1496 1498 1501 1504 1506 1509 1511 1513 1515 1517 1518 1520 1521 1522 1523 1523 1524 1524 1525 1525 1525 1525 1524 1524 1524 1524 1524 1525 1525 1525 1525 1525 1525 1525 1525 1525 1525 1524 1525 1524 1524 1523
1493 1495 1497 1501 1503 1505 1507 1510 1512 1513 1515 1517 1518 1519 1520 1522 1522 1523 1523 1524 1524 1524 1524 1524 1523 1523 1523 1523 1523 1523 1524 1524 1524 1524 1524 1524 1524 1525 1524 1524 1524 1524 1523 1523
1495 1496 1499 1501 1503 1505 1508 1510 1512 1514 1515 1517 1518 1519 1520 1521 1521 1522 1523 1523 1523 1523 1523 1522 1522 1522 1522 1522 1522 1523 1523 1523 1523 1524 1524 1524 1524 1524 1524 1524 1524 1523 1523 1522
1496 1498 1500 1502 1504 1508 1509 1511 1512 1513 1515 1517 1518 1518 1519 1520 1521 1521 1522 1522 1522 1522 1522 1521 1522 1522 1521 1521 1522 1522 1522 1523 1523 1523 1523 1523 1523 1523 1523 1523 1523 1523 1522 1522
1498 1500 1501 1503 1506 1508 1510 1511 1512 1513 1515 1516 1517 1518 1518 1519 1520 1520 1521 1521 1521 1521 1521 1521 1521 1521 1521 1521 1521 1521 1522 1522 1522 1522 1522 1523 1523 1523 1523 1523 1523 1522 1522 1522
1499 1501 1503 1504 1506 1508 1510 1511 1512 1513 1514 1515 1516 1517 1517 1518 1519 1519 1520 1520 1520 1520 1521 1521 1521 1521 1521 1521 1521 1521 1521 1521 1521 1522 1522 1522 1522 1522 1522 1522 1522 1522 1522 1521
1500 1502 1503 1505 1506 1508 1509 1510 1511 1512 1513 1514 1515 1516 1516 1517 1518 1518 1518 1519 1519 1520 1520 1520 1521 1521 1521 1521 1521 1522 1522 1522 1522 1522 1522 1522 1522 1522 1522 1522 1522 1522 1521 1521
1501 1502 1504 1505 1506 1507 1508 1510 1511 1512 1513 1514 1514 1515 1516 1516 1517 1517 1518 1518 1518 1519 1520 1520 1521 1521 1521 1522 1522 1522 1522 1522 1522 1522 1522 1522 1522 1522 1522 1521 1521 1521 1520 1520
1501 1502 1503 1504 1505 1506 1508 1509 1510 1511 1512 1513 1514 1515 1515 1516 1516 1517 1517 1518 1518 1519 1520 1520 1520 1521 1521 1521 1521 1522 1522 1522 1522 1521 1521 1521 1521 1521 1521 1520 1520 1520 1519 1519
1501 1502 1503 1504 1505 1506 1507 1508 1509 1510 1511 1512 1513 1514 1514 1515 1516 1516 1517 1518 1518 1519 1519 1520 1520 1520 1521 1521 1521 1521 1521 1522 1521 1521 1521 1520 1520 1520 1519 1519 1519 1519 1518 1517